Temperature
19 19 19 18 18 18 18 18 18 18 18 18 18 18 18 18 18 18 18 18 18 18 18 18 17 17 17 17 17 17 17 17 17 16 16 16 16 16 16 16 16 16 16
19 19 19 18 18 18 18 18 18 18 18 18 18 18 18 18 18 18 18 18 18 18 18 18 17 17 17 17 17 17 17 17 17 17 16 16 16 16 16 16 16 16 16
19 19 19 19 18 18 18 18 18 18 18 18 18 18 18 18 18 18 18 18 18 18 18 17 17 17 17 17 17 17 17 17 17 16 16 16 16 16 16 16 16 16 16
19 19 19 19 18 18 18 18 18 18 18 18 18 18 18 18 18 18 18 18 18 18 18 17 17 17 17 17 17 17 17 17 17 16 16 16 16 16 16 16 16 16 16
19 19 19 19 19 19 18 18 18 18 18 18 18 18 18 18 18 18 18 18 18 18 17 17 17 17 17 17 17 17 17 17 17 16 16 16 16 16 16 16 16 16 15
19 19 19 19 19 18 18 18 18 18 18 18 18 18 18 18 18 18 18 18 18 18 18 17 17 17 17 17 17 17 17 17 16 16 16 16 16 16 16 16 16 16 15
19 19 19 19 18 18 18 18 18 18 18 18 18 18 18 18 18 18 18 18 18 18 18 18 18 17 17 17 17 17 17 17 16 16 16 16 16 16 16 16 16 16 15
19 19 19 19 19 18 18 18 18 18 18 18 18 18 18 18 18 18 18 18 18 18 18 18 17 17 17 17 17 17 17 17 16 16 16 16 16 16 16 16 15 15 15
19 18 18 19 18 19 18 18 18 18 18 18 18 18 18 17 17 18 18 18 18 18 18 18 18 17 17 17 17 17 17 17 16 16 16 16 16 16 16 15 15 15 15
18 18 18 18 18 18 18 18 18 18 18 18 18 18 18 18 17 17 17 18 18 18 18 17 17 17 17 17 17 17 17 17 16 16 16 16 16 16 16 15 15 15 15
18 18 18 18 18 18 18 18 18 18 18 18 18 18 18 18 18 17 17 17 17 17 17 17 17 17 17 17 17 17 17 17 16 16 16 16 16 16 15 15 15 15 15
18 18 18 18 18 18 18 18 18 18 18 18 18 18 18 18 18 17 17 17 17 17 17 17 17 17 17 17 17 17 17 16 16 16 16 16 16 15 15 15 15 15 15
18 18 18 18 18 18 18 18 18 18 18 18 18 18 18 18 17 17 17 17 17 17 17 17 17 17 17 17 17 16 16 16 16 16 16 16 15 15 15 15 15 15 15
18 18 18 18 18 17 17 17 18 18 18 17 17 17 17 17 17 17 17 17 16 16 16 16 16 16 16 16 16 16 16 16 16 16 16 15 15 15 15 15 15 15 15
18 18 18 17 17 17 17 17 17 17 17 17 17 17 17 17 17 17 17 16 16 16 16 16 16 16 16 16 16 16 16 15 15 15 15 15 15 15 15 15 15 15 14
17 17 17 17 17 17 17 17 17 17 17 17 17 17 17 17 17 17 16 16 16 16 15 16 15 15 15 15 15 15 15 15 15 15 15 15 15 15 15 15 14 14 14
17 17 17 17 17 17 17 17 17 17 16 16 16 16 16 16 16 16 16 16 16 16 15 15 15 15 15 15 15 15 15 15 15 15 15 14 14 14 14 14 14 14 14
17 17 17 17 17 17 17 16 16 16 16 16 16 16 16 16 16 16 16 16 16 15 15 15 15 15 15 15 15 14 14 14 14 14 14 14 14 14 14 14 14 14 14
17 17 16 16 16 16 16 16 16 16 16 16 15 15 15 15 16 16 15 15 15 15 15 15 14 14 14 14 14 14 14 14 14 14 14 14 14 14 14 14 14 14 13
16 16 16 16 16 16 16 16 16 15 15 15 15 15 15 15 15 15 15 15 15 14 14 14 14 14 14 14 14 14 14 14 13 13 13 13 13 13 13 13 13 13 13
16 16 16 16 15 15 15 15 15 15 15 15 15 15 15 15 15 14 14 14 14 14 14 14 14 14 13 13 13 13 13 13 13 13 13 13 13 13 13 13 13 13 13
15 15 15 15 15 15 15 15 15 15 15 15 15 14 14 14 14 14 14 14 14 14 14 13 13 13 13 13 13 12 12 12 12 12 12 13 13 13 13 12 12 12 12
15 15 15 15 14 14 14 14 14 14 14 14 14 14 14 14 14 14 14 14 14 13 13 13 13 13 13 12 12 12 12 12 12 12 12 12 12 12 12 12 12 12 12
15 14 14 14 14 14 14 14 14 14 14 14 14 14 14 14 14 13 13 13 13 13 13 13 13 13 12 12 12 12 12 11 12 12 11 11 12 12 12 12 11 11 11
14 14 14 14 14 14 14 14 14 14 14 14 14 14 13 13 13 13 13 13 13 13 13 13 12 12 12 12 12 11 11 11 11 11 11 11 11 11 11 11 11 11 11
14 14 14 14 14 14 13 13 13 13 13 13 13 13 13 13 13 13 13 13 13 13 12 12 12 12 12 12 12 11 11 11 11 11 11 11 10 10 10 10 10 10 10
Wind_Speed
3 3 3 4 4 4 4 3 3 3 3 3 3 3 3 3 3 3 3 4 5 6 6 6 6 6 7 7 7 7 7 7 8 8 8 8 7 7 7 7 7 7 6
2 3 3 3 3 3 3 3 3 3 2 2 2 2 2 2 3 2 2 3 4 5 5 6 6 7 7 7 8 8 8 8 8 9 9 9 8 8 8 8 8 7 7
2 2 3 2 2 3 4 3 3 3 2 2 2 2 2 2 2 2 2 1 2 3 4 4 5 5 6 7 8 8 9 9 9 9 10 10 9 9 8 8 8 8 7
3 3 3 2 2 3 3 3 3 3 2 2 2 1 1 1 1 1 2 2 2 2 3 4 4 5 5 5 6 8 9 10 10 9 9 10 10 9 9 8 8 8 8
3 3 2 2 3 2 2 2 2 2 2 2 1 1 1 1 0 1 1 2 2 2 2 3 5 5 6 7 6 7 8 9 9 9 9 9 10 10 10 9 9 9 8
3 3 2 3 3 3 2 3 3 3 2 1 2 2 2 1 0 0 1 2 2 3 3 3 4 5 6 6 6 6 7 7 8 8 8 9 9 9 10 10 10 9 9
3 3 2 3 2 2 2 3 2 3 2 1 2 2 2 2 1 0 1 1 2 2 2 3 3 4 4 5 6 6 6 6 6 7 8 8 9 9 9 10 10 10 9
2 3 2 2 2 2 3 2 2 2 1 1 2 1 2 3 2 1 0 1 2 1 1 2 3 3 3 3 4 5 5 5 6 7 7 7 7 7 8 9 10 9 9
2 2 2 2 2 2 2 1 1 2 1 0 1 2 1 1 2 2 1 1 1 1 2 2 2 3 4 4 4 4 5 4 5 6 6 7 7 6 6 6 7 7 7
2 1 2 1 1 1 1 1 1 1 2 1 0 0 1 2 1 1 2 2 2 2 2 2 2 3 3 3 3 3 4 4 4 5 5 5 6 6 6 6 7 6 7
2 2 1 1 1 1 1 1 1 1 1 1 1 1 1 1 1 1 2 2 2 2 2 2 2 2 2 2 3 3 3 4 4 4 4 4 5 6 6 7 7 6 6
2 2 2 1 1 0 1 1 1 1 1 1 1 1 1 1 2 2 2 1 2 2 2 2 2 2 2 2 3 3 4 4 4 4 4 3 3 4 5 5 5 5 6
1 2 1 1 1 0 0 1 1 1 1 1 1 1 1 1 2 2 2 1 1 2 2 2 2 2 2 2 3 4 4 4 5 5 5 4 4 4 4 4 4 4 4
1 1 0 1 1 1 1 1 1 0 1 1 1 1 1 1 1 2 2 2 1 2 1 2 2 2 2 2 3 3 3 4 4 5 5 5 5 4 4 3 3 3 4
0 0 1 1 1 2 1 2 1 1 1 1 1 1 0 0 0 1 1 2 2 2 2 2 1 2 3 2 3 3 3 3 4 4 4 4 4 4 3 3 3 3 3
1 1 1 1 2 2 2 2 1 1 2 1 1 2 1 1 1 1 1 1 1 2 2 2 1 2 3 3 4 3 3 3 3 3 3 3 3 3 4 4 4 4 3
1 0 0 1 1 1 1 1 1 2 2 2 2 2 1 1 1 1 1 1 0 1 2 2 1 2 2 3 4 4 4 3 3 4 3 3 3 2 3 3 4 4 4
0 0 0 1 1 0 1 1 1 1 1 1 1 1 1 1 1 1 1 0 0 1 1 2 2 2 2 3 4 3 3 3 3 4 4 3 3 2 1 1 2 3 4
1 1 0 0 1 0 1 1 1 1 1 1 1 1 0 1 1 0 1 0 0 0 0 1 2 1 2 2 3 3 3 3 4 4 4 3 3 3 1 1 2 2 2
1 0 0 0 1 1 0 1 2 1 1 1 1 1 1 1 1 1 1 1 0 0 0 0 1 1 2 2 2 2 3 3 3 4 4 4 4 4 2 1 1 1 1
1 0 0 1 1 1 0 1 2 2 1 0 0 1 1 1 2 2 1 2 1 1 1 1 1 1 2 2 2 1 2 3 3 2 2 3 3 3 2 1 1 0 0
0 1 0 0 1 1 1 1 2 1 1 1 1 2 2 1 2 2 2 3 2 2 2 2 1 2 3 2 2 2 2 2 2 1 2 3 2 2 2 1 1 1 1
1 0 0 0 1 2 1 1 2 2 1 1 2 2 2 1 1 2 2 2 2 2 4 3 3 3 3 3 2 2 3 3 3 3 2 3 2 3 2 2 1 2 1
1 1 1 1 1 2 2 2 1 1 1 1 2 2 2 2 2 1 1 1 1 2 2 2 3 4 3 3 3 2 3 3 3 2 2 2 3 3 3 2 1 1 2
2 2 2 2 2 3 3 3 2 1 1 2 2 2 2 2 2 2 2 1 1 2 2 2 2 3 3 3 2 1 0 1 2 2 1 2 2 3 3 2 2 2 2
2 2 2 2 2 3 3 3 2 2 2 2 2 2 2 2 2 3 3 2 2 3 2 1 2 2 2 1 2 2 2 1 2 2 1 1 2 2 2 1 2 2 2
Wind_Direction
67 69 70 68 66 72 82 82 76 66 69 72 85 102 106 119 138 141 159 180 186 190 193 197 195 196 197 197 198 200 202 205 206 204 203 202 203 206 207 209 212 211 211
82 80 77 73 75 79 87 92 91 81 68 71 76 86 100 122 131 141 158 180 182 191 203 209 213 214 216 216 215 217 219 218 217 215 214 214 215 217 221 222 221 219 216
100 97 86 83 89 95 99 100 93 90 90 83 77 76 92 119 140 151 162 170 197 203 208 213 221 229 233 233 229 227 227 229 225 223 221 219 221 225 230 228 224 223 222
104 99 90 87 100 95 96 97 94 90 83 80 64 50 76 107 158 169 171 182 205 221 229 233 238 246 254 254 251 244 239 236 232 227 223 222 225 225 229 233 233 232 228
91 98 88 79 93 91 87 102 89 100 97 82 73 47 46 59 187 200 200 212 219 225 239 252 251 254 260 260 262 258 251 242 234 228 229 226 225 223 225 230 233 234 231
78 89 82 67 78 82 76 85 90 79 91 99 85 47 21 14 42 219 229 230 228 231 233 245 254 262 263 265 265 268 262 250 239 235 232 231 231 229 226 227 228 229 232
77 88 83 70 74 84 93 103 104 92 82 99 85 43 20 32 46 288 230 231 242 244 241 245 254 256 265 268 268 265 268 265 250 245 240 236 236 234 232 232 229 226 229
77 93 91 88 86 91 85 88 113 116 94 86 110 84 14 357 0 4 338 247 264 265 257 253 251 251 257 262 267 265 268 267 255 246 240 234 231 233 237 238 232 227 229
72 89 96 96 92 104 114 122 139 147 169 48 104 143 143 240 321 345 5 0 337 306 290 296 278 261 258 259 264 266 260 263 266 254 247 235 226 225 230 235 235 232 230
57 81 93 103 111 117 134 173 144 156 156 205 180 147 188 178 182 317 339 356 351 340 320 308 306 295 277 270 265 257 263 266 266 267 263 250 235 230 228 232 235 234 231
27 47 75 95 107 115 145 139 123 143 159 179 194 181 154 131 170 190 288 331 349 340 326 311 310 312 307 287 277 272 272 270 267 268 265 258 246 236 236 237 238 239 237
9 15 41 49 88 127 178 172 154 160 162 163 183 179 176 177 179 174 215 285 317 321 330 334 335 329 329 320 300 300 280 270 271 273 273 273 267 256 246 249 243 241 243
342 341 4 26 30 179 191 142 126 137 145 160 185 188 189 206 184 167 171 222 287 309 330 346 336 339 340 343 328 322 306 294 282 280 282 280 276 271 257 255 246 240 244
262 324 41 27 25 50 105 114 101 108 112 160 185 164 169 210 176 169 172 171 264 309 323 306 332 352 343 335 326 325 326 315 300 288 279 273 273 268 255 240 241 239 237
268 72 73 45 33 41 66 87 72 48 69 65 70 80 76 7 148 171 175 181 182 248 284 289 310 340 340 332 338 344 329 321 305 288 282 273 266 254 242 228 220 225 225
30 57 44 44 38 37 57 76 67 55 68 52 70 77 56 36 62 93 143 161 185 199 251 276 283 319 331 351 1 353 342 335 324 313 307 295 274 256 244 230 218 215 212
66 65 88 56 30 15 44 79 77 80 87 67 61 81 59 51 70 70 94 107 126 184 236 287 298 333 340 345 349 354 349 340 337 336 334 324 309 276 253 232 226 223 221
96 192 162 136 206 253 70 101 106 99 118 112 96 92 58 74 69 72 112 132 237 239 221 274 302 330 331 333 337 343 355 352 344 343 336 332 330 319 285 223 226 229 228
92 63 91 180 247 236 171 146 138 143 154 158 145 139 156 116 83 66 100 106 264 296 223 242 288 311 318 333 340 346 351 348 351 353 352 353 343 340 327 285 250 247 242
140 163 235 286 295 296 206 170 159 164 160 161 177 193 192 176 200 211 180 197 178 121 129 203 272 313 316 331 344 340 339 341 336 344 352 353 354 354 345 331 314 282 262
195 190 61 343 315 324 279 158 165 168 178 207 283 263 218 203 208 213 212 206 185 186 182 198 244 300 306 317 318 312 314 323 312 323 331 342 347 347 344 333 312 284 276
160 77 119 271 307 307 342 157 158 182 194 215 256 275 261 265 263 255 249 231 207 203 203 205 238 264 277 283 290 289 297 312 304 323 321 315 327 318 317 324 328 278 239
185 158 297 273 288 297 302 243 204 185 210 230 245 261 269 278 242 260 282 286 263 231 199 198 222 249 256 252 253 275 266 267 273 297 300 298 308 306 306 323 320 290 262
195 210 237 245 278 299 289 265 228 189 239 249 249 240 237 260 251 223 252 308 295 271 238 220 230 246 253 238 229 248 257 273 288 289 266 279 298 301 314 313 314 270 264
207 223 233 232 248 286 289 264 209 201 246 274 270 257 234 246 247 191 175 236 289 299 291 258 258 270 271 251 204 151 246 283 293 296 271 260 287 300 303 297 291 258 259
216 225 247 249 242 261 276 268 229 216 235 259 272 268 249 246 241 194 187 200 240 265 280 312 323 324 313 279 216 212 213 241 282 279 264 260 294 314 299 298 314 312 291
Height
1513 1514 1514 1516 1516 1518 1519 1520 1521 1522 1524 1525 1526 1527 1528 1529 1529 1530 1531 1532 1532 1533 1534 1534 1535 1536 1536 1537 1537 1538 1539 1539 1540 1541 1541 1542 1543 1544 1545 1546 1547 1548 1549
1517 1517 1518 1518 1519 1520 1521 1522 1523 1524 1525 1526 1527 1528 1529 1529 1530 1531 1531 1532 1533 1533 1534 1534 1535 1535 1536 1536 1537 1537 1538 1538 1539 1539 1540 1540 1541 1542 1543 1544 1545 1546 1547
1520 1520 1520 1521 1522 1522 1523 1524 1525 1526 1527 1528 1528 1529 1529 1530 1530 1531 1532 1532 1533 1533 1534 1534 1535 1535 1535 1535 1535 1536 1536 1537 1537 1538 1538 1539 1540 1541 1542 1542 1543 1544 1545
1522 1522 1523 1523 1524 1524 1525 1526 1527 1527 1528 1528 1529 1529 1530 1530 1531 1531 1532 1532 1533 1534 1534 1534 1535 1535 1534 1535 1534 1535 1535 1535 1535 1536 1536 1537 1538 1538 1539 1540 1541 1542 1542
1524 1524 1524 1525 1525 1526 1526 1527 1528 1528 1529 1529 1529 1530 1530 1530 1531 1531 1532 1532 1533 1533 1533 1534 1534 1534 1534 1534 1534 1533 1533 1533 1533 1534 1534 1535 1536 1536 1537 1537 1538 1539 1539
1525 1526 1526 1526 1527 1527 1528 1528 1529 1529 1529 1529 1530 1530 1530 1530 1531 1531 1532 1532 1532 1532 1533 1533 1533 1533 1533 1533 1532 1532 1532 1531 1531 1531 1532 1533 1533 1534 1534 1535 1535 1536 1536
1527 1527 1527 1527 1528 1528 1528 1529 1529 1530 1530 1530 1530 1530 1530 1531 1531 1531 1531 1531 1531 1532 1532 1532 1532 1532 1532 1532 1531 1531 1530 1530 1530 1529 1530 1530 1530 1531 1531 1531 1531 1532 1533
1528 1528 1528 1528 1528 1528 1529 1529 1529 1529 1530 1530 1530 1530 1530 1531 1530 1531 1531 1531 1531 1531 1531 1531 1531 1531 1530 1530 1530 1529 1529 1528 1528 1528 1528 1527 1527 1528 1528 1528 1528 1528 1529
1528 1528 1528 1528 1528 1528 1529 1529 1529 1529 1529 1530 1530 1531 1530 1530 1530 1530 1530 1530 1530 1530 1530 1530 1530 1529 1529 1529 1528 1528 1527 1527 1526 1526 1525 1524 1525 1525 1525 1526 1525 1526 1526
1528 1528 1528 1528 1528 1528 1528 1528 1529 1529 1529 1529 1529 1530 1530 1530 1530 1529 1530 1529 1529 1529 1529 1528 1528 1528 1527 1527 1527 1526 1525 1525 1524 1524 1523 1523 1523 1522 1523 1523 1523 1524 1524
1528 1528 1528 1528 1528 1527 1527 1528 1528 1528 1528 1528 1528 1528 1529 1529 1529 1528 1528 1528 1528 1528 1527 1527 1527 1526 1526 1526 1525 1524 1524 1523 1522 1522 1521 1521 1521 1520 1520 1520 1520 1521 1521
1528 1528 1527 1527 1527 1527 1527 1527 1527 1527 1527 1527 1527 1527 1527 1527 1527 1527 1527 1526 1526 1526 1526 1526 1526 1525 1525 1524 1523 1522 1522 1521 1520 1520 1519 1519 1519 1518 1518 1518 1517 1517 1518
1527 1527 1527 1526 1526 1526 1526 1526 1526 1526 1526 1526 1526 1526 1526 1526 1526 1526 1525 1525 1525 1524 1524 1524 1524 1524 1523 1522 1521 1520 1520 1519 1518 1518 1517 1517 1516 1516 1515 1515 1515 1514 1514
1526 1525 1525 1525 1525 1525 1524 1524 1524 1524 1524 1524 1524 1524 1524 1524 1524 1524 1524 1524 1523 1523 1523 1522 1522 1522 1521 1520 1519 1518 1518 1517 1516 1515 1515 1514 1514 1513 1513 1512 1512 1512 1512
1524 1524 1524 1524 1524 1523 1523 1523 1523 1523 1523 1523 1523 1523 1523 1523 1522 1522 1523 1523 1523 1521 1521 1520 1520 1520 1519 1518 1517 1516 1515 1515 1514 1513 1512 1511 1511 1510 1510 1510 1510 1510 1510
1523 1523 1523 1523 1522 1522 1522 1522 1521 1521 1521 1521 1521 1521 1521 1521 1521 1521 1521 1521 1521 1520 1519 1518 1518 1518 1517 1516 1515 1514 1513 1512 1511 1510 1509 1509 1508 1508 1507 1507 1507 1507 1507
1521 1521 1521 1521 1520 1520 1520 1520 1520 1520 1520 1520 1520 1520 1520 1520 1520 1519 1519 1519 1519 1519 1517 1516 1516 1515 1515 1514 1513 1512 1511 1510 1509 1508 1507 1506 1506 1505 1505 1504 1504 1504 1504
1519 1519 1519 1519 1518 1518 1518 1517 1518 1518 1518 1518 1518 1518 1518 1518 1518 1517 1517 1517 1517 1516 1516 1514 1514 1513 1512 1511 1510 1509 1508 1507 1506 1505 1505 1504 1503 1502 1502 1502 1501 1501 1501
1517 1517 1517 1516 1516 1516 1515 1515 1516 1516 1516 1516 1516 1516 1516 1516 1516 1515 1515 1514 1514 1514 1513 1513 1512 1511 1510 1509 1508 1507 1506 1505 1504 1503 1502 1502 1501 1500 1499 1499 1498 1498 1498
1515 1515 1515 1514 1514 1513 1513 1513 1513 1514 1514 1514 1514 1514 1514 1514 1514 1513 1513 1512 1512 1512 1511 1510 1509 1508 1507 1506 1506 1505 1504 1503 1502 1501 1500 1499 1498 1498 1497 1496 1496 1496 1495
1513 1513 1512 1512 1512 1511 1511 1511 1511 1511 1512 1512 1512 1512 1511 1511 1511 1511 1511 1510 1509 1509 1508 1507 1506 1505 1505 1504 1503 1502 1501 1500 1500 1499 1498 1497 1496 1495 1495 1494 1494 1493 1493
1511 1510 1510 1509 1509 1509 1509 1509 1509 1509 1509 1509 1509 1509 1509 1509 1509 1509 1508 1508 1507 1506 1505 1505 1504 1503 1502 1502 1501 1500 1499 1498 1497 1497 1496 1495 1494 1493 1492 1492 1491 1491 1490
1508 1508 1507 1507 1506 1506 1506 1506 1506 1506 1506 1506 1506 1506 1506 1506 1506 1506 1506 1505 1504 1504 1503 1503 1501 1500 1500 1499 1498 1497 1497 1496 1495 1494 1493 1491 1491 1490 1490 1489 1489 1488 1488
1505 1505 1504 1504 1504 1504 1504 1503 1503 1503 1503 1503 1503 1503 1503 1503 1503 1503 1502 1502 1501 1500 1500 1499 1499 1498 1497 1496 1495 1495 1494 1493 1492 1491 1490 1489 1488 1487 1486 1486 1486 1485 1485
1502 1502 1502 1502 1501 1501 1501 1501 1501 1500 1500 1500 1501 1501 1500 1500 1500 1500 1499 1498 1498 1497 1497 1497 1496 1495 1495 1494 1493 1492 1491 1490 1488 1488 1487 1486 1485 1484 1483 1482 1482 1482 1482
1499 1499 1499 1499 1499 1499 1499 1499 1499 1498 1497 1497 1497 1497 1497 1497 1497 1496 1496 1495 1494 1494 1494 1493 1493 1492 1491 1491 1490 1489 1488 1487 1485 1484 1484 1483 1482 1481 1480 1479 1479 1479 1479